TimeCST,TemperatureF,Dew PointF,Humidity,Sea Level PressureIn,VisibilityMPH,Wind Direction,Wind SpeedMPH,Gust SpeedMPH,PrecipitationIn,Events,Conditions,WindDirDegrees,DateUTC
6:00 AM,74,72,93,29.87,12,ESE,3.5,,,,Overcast,120,2013-07-01 12:00:00
6:00 AM,75.2,71.6,89,29.86,6.2,ESE,3.5,-,N/A,,Mostly Cloudy,120,2013-07-01 12:00:00
7:00 AM,77.0,73.4,89,29.90,6.2,SSE,3.5,-,N/A,,Mostly Cloudy,160,2013-07-01 13:00:00
8:00 AM,82.4,75.2,79,29.90,6.2,SE,3.5,-,N/A,,Mostly Cloudy,130,2013-07-01 14:00:00
9:00 AM,81,74,75,29.93,12,SSE,5.8,,,,Partly Cloudy,150,2013-07-01 15:00:00
9:00 AM,80.6,75.2,84,29.92,6.2,SSE,5.8,-,N/A,,Mostly Cloudy,150,2013-07-01 15:00:00
10:00 AM,84.2,75.2,74,29.91,6.2,SSE,6.9,-,N/A,,Mostly Cloudy,150,2013-07-01 16:00:00
11:00 AM,84.2,71.6,66,29.90,6.2,SE,6.9,-,N/A,,Mostly Cloudy,140,2013-07-01 17:00:00
12:00 PM,86,74,59,29.88,12,SSE,5.8,,,,Partly Cloudy,160,2013-07-01 18:00:00
12:00 PM,86.0,73.4,66,29.87,6.2,SSE,5.8,-,N/A,,Scattered Clouds,160,2013-07-01 18:00:00
1:00 PM,89.6,75.2,62,29.85,6.2,SSE,4.6,-,N/A,,Mostly Cloudy,160,2013-07-01 19:00:00
2:00 PM,89.6,71.6,55,29.82,6.2,ESE,3.5,-,N/A,,Mostly Cloudy,120,2013-07-01 20:00:00
3:00 PM,86.0,75.2,70,29.80,6.2,West,12.7,-,N/A,,Scattered Clouds,280,2013-07-01 21:00:00
4:00 PM,82.4,73.4,74,29.80,6.2,West,12.7,-,N/A,Rain-Thunderstorm,Thunderstorms and Rain,280,2013-07-01 22:00:00
4:15 PM,78.8,73.4,83,29.82,6.2,WSW,9.2,-,N/A,Rain,Rain,250,2013-07-01 22:15:00
4:25 PM,75.2,71.6,89,29.83,3.1,South,9.2,-,N/A,Rain,Rain,180,2013-07-01 22:25:00
5:00 PM,75.2,71.6,89,29.83,6.2,NNW,4.6,-,N/A,Rain-Thunderstorm,Light Rain,340,2013-07-01 23:00:00
6:00 PM,75,72,88,29.88,9,East,10.4,,,Rain,Light Rain,80,2013-07-02 00:00:00
6:00 PM,75.2,71.6,89,29.86,6.2,East,10.4,-,N/A,Rain-Thunderstorm,Light Rain,80,2013-07-02 00:00:00
6:15 PM,73.4,69.8,88,29.87,6.2,East,6.9,-,N/A,Rain-Thunderstorm,Thunderstorms and Rain,90,2013-07-02 00:15:00
7:00 PM,73.4,71.6,94,29.88,6.2,ENE,3.5,-,N/A,Rain,Light Rain,70,2013-07-02 01:00:00
8:00 PM,73.4,71.6,94,29.90,6.2,NNE,4.6,-,N/A,Rain,Light Rain,20,2013-07-02 02:00:00